Helicity
168 176 160 123 108 138 173 194 202 158 208 211 154 130 216 238 191 187 115 89 119 133 106 80 113 120 111 106 103 94 72 68 73 79 83 82 83 79
220 197 172 137 153 158 202 214 221 192 137 181 108 108 128 200 176 186 161 119 143 117 111 85 82 113 114 121 109 102 99 95 97 103 112 99 106 94
218 197 127 139 170 196 200 219 241 246 226 165 152 159 179 171 176 218 171 147 127 121 123 94 78 90 118 123 110 93 97 93 95 102 100 94 94 92
205 163 121 152 111 98 136 195 222 196 216 178 164 254 189 188 213 256 261 217 207 102 100 125 106 99 110 130 131 114 106 102 118 137 123 114 137 133
150 115 75 81 79 103 128 170 186 185 174 203 189 211 226 180 216 226 216 196 236 256 120 159 137 109 125 131 146 154 146 142 166 190 178 167 172 195
130 94 87 85 75 75 99 99 127 195 194 283 230 293 337 277 265 233 230 252 360 396 415 310 216 176 164 167 183 211 247 296 331 357 351 388 438 506
82 110 128 153 124 89 83 77 100 163 202 287 227 259 307 356 294 312 289 429 536 506 489 322 325 339 314 293 309 332 385 421 445 477 507 528 557 579
189 198 187 145 140 112 64 55 56 100 187 196 206 203 297 371 350 333 386 526 413 414 561 564 491 469 392 398 411 463 470 488 491 478 495 554 564 496
187 162 145 136 126 113 106 83 136 202 188 156 182 312 253 354 372 391 427 486 487 576 732 716 677 622 530 466 459 474 450 473 483 476 472 544 452 381
168 166 153 147 138 122 79 69 129 161 144 150 179 225 338 376 436 495 462 625 692 619 744 717 672 671 587 575 481 443 398 436 456 454 560 524 374 379
186 228 216 178 229 162 90 87 132 147 85 180 351 445 540 630 420 431 606 734 933 851 833 847 734 785 723 639 475 341 415 360 459 451 397 361 361 359
219 167 274 215 243 231 158 169 167 170 169 196 180 259 407 453 750 829 645 627 795 840 816 981 759 794 737 694 482 493 341 343 334 354 305 431 388 365
198 238 203 198 298 275 253 226 181 167 189 237 237 252 337 373 513 678 781 776 820 762 773 766 771 865 551 777 744 608 379 469 423 469 495 452 414 358
132 121 116 159 227 290 201 269 297 275 289 316 339 378 390 436 465 591 727 756 753 584 721 734 726 782 768 681 791 679 643 618 514 523 471 355 306 337
49 104 141 153 168 206 353 346 300 277 297 364 353 377 397 393 356 441 471 464 587 639 617 613 727 756 628 761 840 830 913 733 537 476 347 274 289 263
30 35 56 68 108 125 172 202 177 217 203 226 299 322 323 424 483 447 407 518 726 666 613 569 514 477 649 634 603 607 489 455 345 306 265 271 234 201
34 54 72 78 84 91 102 140 150 165 225 258 282 233 283 334 399 402 431 474 478 542 593 648 647 698 760 605 599 534 483 434 367 319 269 227 145 118
81 96 108 118 125 121 124 118 141 165 150 157 190 200 183 218 255 294 305 311 313 394 436 445 444 495 567 667 562 402 336 270 213 178 159 149 126 106
118 128 133 137 139 140 155 158 165 161 159 166 157 159 162 180 203 214 214 227 260 264 287 299 297 273 265 297 285 351 198 175 152 144 137 125 118 101
156 161 167 171 172 173 168 172 176 179 183 183 183 183 178 171 170 177 180 179 185 198 220 231 242 262 198 199 193 209 296 156 156 135 115 114 113 102
184 181 177 184 190 187 186 179 182 185 185 178 192 199 198 182 180 175 173 162 147 158 183 194 178 165 148 142 159 129 126 149 153 148 151 155 157 142
179 178 181 184 184 188 182 187 175 186 187 177 181 179 177 168 177 174 165 158 154 146 143 137 125 121 123 137 152 147 161 162 120 124 131 145 165 172
146 149 145 154 165 172 173 176 181 177 184 184 182 167 174 170 159 150 151 156 153 150 145 148 149 158 180 189 173 161 159 147 142 124 98 81 81 69
Wind_Speed
41 41 42 41 39 42 46 47 53 68 64 50 50 31 30 31 43 52 51 46 49 48 49 50 50 55 50 46 42 38 35 33 32 33 32 30 27 29
43 44 44 44 46 46 48 50 52 57 86 62 41 42 31 36 35 52 58 55 49 50 51 53 51 53 54 53 49 46 43 39 36 37 38 33 36 40
43 45 43 42 46 50 50 51 52 55 60 70 69 46 42 43 43 47 58 63 62 48 52 55 55 52 55 56 53 51 49 45 43 43 43 41 43 43
46 45 42 43 49 50 52 52 54 55 59 63 63 58 47 41 43 50 54 64 64 54 51 53 55 55 53 55 57 54 52 47 47 47 44 43 45 47
48 47 49 50 54 58 55 53 52 59 58 62 63 59 52 49 52 50 55 60 67 63 54 51 51 52 53 54 56 58 56 52 49 48 43 40 40 42
48 50 57 61 67 67 65 60 57 59 61 58 63 67 59 53 55 59 55 60 60 57 58 58 55 55 55 56 55 53 53 50 45 44 38 33 29 29
50 54 57 64 73 77 74 66 58 62 64 60 62 70 69 61 58 58 58 54 56 62 62 56 51 50 48 45 47 45 41 41 38 32 30 26 25 27
53 56 60 64 66 77 79 79 66 65 65 67 75 74 71 65 56 57 57 61 70 59 61 59 53 52 47 44 40 38 36 34 31 29 27 25 25 26
47 56 61 63 68 73 75 73 66 62 64 72 74 66 69 63 59 56 62 64 73 62 56 58 52 50 46 38 33 33 32 32 29 27 26 26 25 27
44 53 58 64 66 68 65 62 56 60 67 70 68 76 78 63 62 57 59 59 60 56 56 62 50 48 39 33 32 32 31 30 27 26 28 28 27 29
44 49 56 61 67 61 55 54 51 53 55 56 56 58 65 64 60 58 56 60 63 65 61 55 51 42 40 34 32 30 26 27 25 23 23 26 30 31
49 50 55 57 58 55 51 51 51 57 59 56 55 55 52 57 60 60 60 60 58 62 59 54 46 45 52 41 35 33 29 24 24 24 28 28 31 36
48 53 54 54 54 52 49 51 50 48 50 47 50 50 45 46 46 46 48 56 63 60 52 55 55 51 52 49 46 37 34 30 31 33 33 36 38 40
49 50 51 53 51 51 49 48 47 46 45 43 46 49 47 41 38 37 35 33 35 39 43 48 48 52 53 43 50 43 37 36 34 35 36 34 37 40
48 50 49 51 50 50 50 49 47 44 42 41 43 46 46 40 34 30 29 27 24 29 31 34 36 37 43 48 45 42 41 41 35 35 36 37 38 38
51 51 50 49 50 49 48 46 43 41 40 38 40 41 39 38 36 34 33 31 29 27 29 24 21 26 34 35 30 35 34 40 35 34 35 37 38 41
53 52 52 52 52 50 47 46 45 43 43 42 39 38 38 36 35 34 32 29 29 25 25 24 21 18 20 19 23 25 30 30 32 36 39 42 42 44
55 55 54 54 53 52 51 50 48 48 46 44 41 40 38 38 36 34 32 28 26 27 26 24 20 19 20 23 25 28 29 32 34 38 43 49 50 44
57 57 56 55 55 53 52 52 51 50 47 46 44 42 40 40 38 35 34 32 31 29 30 31 30 31 32 36 36 35 36 37 39 42 44 48 53 53
59 59 59 57 56 55 54 54 53 51 49 47 45 44 42 40 39 37 35 32 33 32 32 34 36 38 35 39 37 37 39 38 42 46 48 50 50 51
63 61 60 59 58 56 54 53 51 50 50 48 46 45 44 42 39 37 36 36 35 36 37 38 37 33 33 30 36 38 40 38 41 46 49 53 54 53
65 63 62 60 59 58 56 55 53 51 49 48 47 45 43 42 42 41 41 41 41 40 39 36 35 36 39 40 40 40 41 44 39 40 42 46 51 56
64 63 62 60 60 58 57 56 54 52 51 50 49 46 45 44 43 41 41 40 40 40 39 38 37 36 38 39 39 41 42 43 45 45 42 42 47 49
Wind_Direction
263 265 266 273 276 281 284 288 292 293 294 300 296 289 278 271 258 250 243 244 231 227 219 217 239 248 247 247 246 246 247 249 249 260 263 265 264 278
269 271 270 274 279 281 284 287 288 290 287 295 294 293 279 275 256 254 251 249 238 224 219 217 222 242 248 250 252 254 256 255 255 261 268 267 276 284
274 274 272 274 279 282 285 287 288 288 288 291 289 290 282 275 270 259 251 250 252 234 223 220 219 227 245 250 252 254 256 255 259 264 267 272 278 281
277 275 274 278 281 284 288 288 287 287 288 288 289 284 277 270 269 263 253 248 248 248 231 227 225 226 236 247 253 255 257 256 261 266 268 274 279 283
277 277 280 283 286 288 291 290 289 290 285 287 286 282 278 271 268 270 259 249 250 257 246 243 233 231 238 245 251 256 258 261 263 266 267 273 277 282
277 281 282 285 286 291 294 293 292 288 286 282 282 279 275 273 269 264 263 255 249 253 255 258 255 252 252 254 253 254 256 258 260 264 266 273 274 281
280 283 285 287 288 290 294 298 296 290 289 277 278 277 272 270 261 266 260 254 253 253 254 256 257 257 257 255 253 249 248 251 253 255 257 264 273 281
281 285 288 292 296 293 295 296 298 291 288 284 280 270 267 266 265 262 253 253 253 253 250 254 257 258 258 259 252 245 244 243 246 251 255 264 271 278
288 289 290 295 298 300 302 305 306 302 295 291 281 267 264 263 260 256 252 252 253 251 245 251 259 258 260 255 246 243 239 245 247 250 255 267 273 282
297 299 298 300 304 306 311 314 315 314 310 298 289 279 270 264 254 248 251 256 259 248 249 253 258 258 254 251 249 247 243 246 247 254 265 272 275 283
308 312 308 307 309 311 313 318 321 322 325 323 307 295 281 274 264 258 255 249 257 251 251 255 253 251 253 250 252 244 249 246 256 263 268 276 280 285
311 308 316 316 317 318 317 318 320 322 323 322 314 307 296 280 279 269 254 246 258 257 249 252 234 246 253 256 249 254 247 259 262 268 275 283 286 290
316 315 317 319 323 323 324 321 320 323 328 331 327 325 316 300 294 281 274 263 257 263 250 251 245 247 254 251 254 256 256 262 271 278 284 288 291 291
326 325 323 322 327 327 325 326 323 324 325 329 329 324 322 322 309 303 296 286 282 271 266 259 249 243 249 243 258 260 261 270 275 280 286 290 292 296
334 334 334 332 325 328 330 326 324 323 324 325 326 325 324 334 323 319 316 322 314 303 293 276 258 247 251 261 256 257 262 274 278 281 281 285 292 298
334 332 334 332 333 332 333 333 329 329 328 326 324 325 330 335 329 326 311 314 313 303 315 305 286 268 265 267 255 258 262 274 273 279 284 291 299 302
334 333 330 329 326 328 331 331 329 326 324 324 325 325 323 328 331 330 328 327 315 310 301 315 317 310 299 277 263 268 273 277 281 285 290 294 301 303
332 329 328 327 324 323 322 322 324 321 319 319 320 317 317 316 319 324 327 322 314 314 311 309 310 302 300 309 304 280 285 287 291 295 296 294 298 304
331 327 325 323 321 321 319 318 317 318 320 315 313 314 313 313 314 314 310 309 303 308 307 304 300 295 285 285 290 307 289 293 296 298 300 300 299 302
329 325 323 322 321 318 317 314 314 314 314 314 313 311 311 310 309 309 308 306 301 301 302 303 300 299 292 290 291 296 306 298 300 300 301 304 306 307
323 322 320 318 317 316 316 315 315 314 312 310 310 310 308 306 306 307 305 302 299 297 297 298 299 304 301 305 298 296 302 311 309 304 305 305 306 307
320 317 316 315 314 313 312 311 310 310 310 310 309 308 307 305 302 300 298 296 296 296 297 301 303 301 298 297 297 299 302 308 311 314 314 311 310 307
319 316 315 313 312 311 310 308 307 306 306 306 306 306 304 302 302 302 301 301 299 298 298 299 302 304 303 303 302 303 306 308 310 310 311 317 316 315